sat.trackr.live / text

‹ back to catalog

ONEWEB-0604

NORAD 54668 · 2022-166AC

PAYLOAD ACTIVE UNKNOWN

§ Identity

Operator
Country
UK
Launch date
2022-12-08
Launch site
AFETR
Launch vehicle
Mass (kg)
RCS (m²)

Purposes: comms

External: N2YO · Heavens-Above · Gunter

§ Orbital elements

Epoch: 2026-05-24T23:33:28.791072Z

Period
108.94 min
Inclination
87.9260°
Eccentricity
0.0001895
Mean motion
13.21825412 rev/d
Perigee alt
1,176.3 km
Apogee alt
1,179.2 km
Semi-major
7,555.9 km
B*
5.2728e-6
RAAN
248.5888°
Arg perigee
100.6587°
Mean anomaly
259.4761°
Rev number
16,837

§ Raw data

ONEWEB-06041 54668U 22166AC  26144.98158323  .00000015  00000+0  52728-5 0  99962 54668  87.9260 248.5888 0001895 100.6587 259.4761 13.21825412168374

JSON: /api/v1/satellites/54668 · /tle

For live sub-satellite position, see the globe view (requires WebGL).

§ Visibility from observer

Set your observer location to see the next 7 days of passes ≥ 10°. The values pass through the URL so the page stays shareable.

No JS? Fill the form by hand. The geolocation button needs JavaScript.